sat.trackr.live / text

‹ back to catalog

STARLINK-5828

NORAD 57070 · 2023-088Y

PAYLOAD ACTIVE UNKNOWN

§ Identity

Operator
Country
US
Launch date
2023-06-22
Launch site
AFWTR
Launch vehicle
Mass (kg)
RCS (m²)

Purposes: comms

External: N2YO · Heavens-Above · Gunter

§ Orbital elements

Epoch: 2026-05-25T00:32:52.007424Z

Period
94.27 min
Inclination
43.0016°
Eccentricity
0.0001008
Mean motion
15.27576571 rev/d
Perigee alt
482.4 km
Apogee alt
483.8 km
Semi-major
6,861.2 km
B*
1.5986e-5
RAAN
25.1171°
Arg perigee
231.2685°
Mean anomaly
128.8077°
Rev number
16,217

§ Raw data

STARLINK-58281 57070U 23088Y   26145.02282416  .00000178  00000+0  15986-4 0  99912 57070  43.0016  25.1171 0001008 231.2685 128.8077 15.27576571162174

JSON: /api/v1/satellites/57070 · /tle

For live sub-satellite position, see the globe view (requires WebGL).

§ Visibility from observer

Set your observer location to see the next 7 days of passes ≥ 10°. The values pass through the URL so the page stays shareable.

No JS? Fill the form by hand. The geolocation button needs JavaScript.